FW1762 Weather Reports


time (UTC)temp
C
wind
direction
speed
KPH
gust
KPH
rain 1hr
cm
rain 24hr
cm
rain mn
cm
humidity
%
barometer
mb
20260507093537 15 173 0.0 0.0 0.00 0.00 0.00 57 1016.3
20260507093038 15 207 0.0 0.0 0.00 0.00 0.00 59 1016.3
20260507092540 14 262 0.0 0.0 0.00 0.00 0.00 59 1016.3
20260507092039 15 276 0.0 0.0 0.00 0.00 0.00 60 1016.3
20260507091638 14 236 0.0 0.0 0.00 0.00 0.00 65 1016.3
20260507091212 14 202 0.0 0.0 0.00 0.00 0.00 64 1016.3
20260507090739 13 200 0.0 0.0 0.00 0.00 0.00 65 1016.3
20260507090314 13 159 0.0 0.0 0.00 0.00 0.00 67 1016.3
20260507085538 13 89 0.0 0.0 0.00 0.00 0.00 73 1016.3
20260507085137 12 247 0.0 0.0 0.00 0.00 0.00 73 1016.3
20260507084735 12 157 0.0 0.0 0.00 0.00 0.00 73 1016.3
20260507084316 12 98 0.0 0.0 0.00 0.00 0.00 74 1016.3
20260507083540 12 198 0.0 0.0 0.00 0.00 0.00 76 1016.6
20260507083042 12 229 0.0 0.0 0.00 0.00 0.00 76 1016.3
20260507082537 12 140 0.0 0.0 0.00 0.00 0.00 78 1016.3
20260507082114 12 155 0.0 0.0 0.00 0.00 0.00 81 1016.3
20260507081641 11 88 0.0 0.0 0.00 0.00 0.00 82 1016.6
20260507081236 11 114 0.0 0.0 0.00 0.00 0.00 83 1016.3
20260507080812 11 142 0.0 0.0 0.00 0.00 0.00 83 1016.6
20260507080039 11 214 0.0 0.0 0.00 0.00 0.00 83 1016.6
20260507075540 11 290 0.0 0.0 0.00 0.00 0.00 84 1016.6
20260507075136 11 150 0.0 0.0 0.00 0.00 0.00 84 1016.6
20260507074714 10 78 0.0 0.0 0.00 0.00 0.00 86 1016.3
20260507074239 10 155 0.0 0.0 0.00 0.00 0.00 87 1016.3
20260507073812 10 36 0.0 0.0 0.00 0.00 0.00 87 1016.3
20260507073043 10 121 0.0 0.0 0.00 0.00 0.00 88 1016.3
20260507072540 9 122 0.0 1.6 0.00 0.00 0.00 89 1016.3
20260507072113 9 52 0.0 0.0 0.00 0.00 0.00 90 1016.3
20260507071642 8 55 0.0 0.0 0.00 0.00 0.00 90 1016.6
20260507071239 8 128 0.0 0.0 0.00 0.00 0.00 90 1016.6
20260507070814 8 123 0.0 0.0 0.00 0.00 0.00 91 1016.6
20260507070039 8 140 0.0 0.0 0.00 0.00 0.00 93 1016.6
20260507065538 7 141 0.0 0.0 0.00 0.00 0.00 93 1016.6
20260507065113 7 141 0.0 0.0 0.00 0.00 0.00 93 1016.6
20260507064637 7 141 0.0 0.0 0.00 0.00 0.00 93 1016.6
20260507064212 6 141 0.0 0.0 0.00 0.00 0.00 93 1016.6
20260507063813 6 141 0.0 0.0 0.00 0.00 0.00 93 1016.6
20260507063040 6 139 0.0 0.0 0.00 0.00 0.00 93 1016.6
20260507062542 6 139 0.0 0.0 0.00 0.00 0.00 93 1016.6
20260507062113 5 139 0.0 0.0 0.00 0.00 0.00 93 1016.6
20260507061711 5 139 0.0 0.0 0.00 0.00 0.00 93 1016.3
20260507061310 5 139 0.0 0.0 0.00 0.00 0.00 93 1016.3
20260507060539 5 139 0.0 0.0 0.00 0.00 0.00 93 1016.3
20260507060037 5 139 0.0 0.0 0.00 0.00 0.00 93 1016.3
20260507055614 5 139 0.0 0.0 0.00 0.00 0.00 93 1016.3
20260507055139 5 139 0.0 0.0 0.00 0.00 0.00 93 1016.3
20260507054711 4 139 0.0 0.0 0.00 0.00 0.00 93 1016.3
20260507054241 4 139 0.0 0.0 0.00 0.00 0.00 93 1016.3
20260507053811 4 139 0.0 0.0 0.00 0.00 0.00 92 1016.3
20260507053042 4 139 0.0 0.0 0.00 0.00 0.00 92 1015.9
20260507052542 4 139 0.0 0.0 0.00 0.00 0.00 92 1015.9
20260507052041 4 139 0.0 0.0 0.00 0.00 0.00 92 1015.9
20260507051540 4 139 0.0 0.0 0.00 0.00 0.00 92 1015.9
20260507051115 4 139 0.0 0.0 0.00 0.00 0.00 92 1015.9
20260507050711 4 139 0.0 0.0 0.00 0.00 0.00 92 1015.9
20260507050241 4 139 0.0 0.0 0.00 0.00 0.00 92 1015.9
20260507045812 4 139 0.0 0.0 0.00 0.00 0.00 92 1015.9
20260507045032 4 139 0.0 0.0 0.00 0.00 0.00 92 1015.9
20260507044529 4 139 0.0 0.0 0.00 0.00 0.00 92 1015.9
20260507044030 4 139 0.0 0.0 0.00 0.00 0.00 92 1015.9
20260507043533 4 125 0.0 0.0 0.00 0.00 0.00 92 1015.9
20260507043030 4 118 0.0 0.0 0.00 0.00 0.00 92 1015.9
20260507042529 4 112 0.0 0.0 0.00 0.00 0.00 92 1015.9
20260507042029 4 112 0.0 0.0 0.00 0.00 0.00 92 1015.9
20260507041532 5 112 0.0 0.0 0.00 0.00 0.00 92 1015.9
20260507041029 5 112 0.0 0.0 0.00 0.00 0.00 92 1015.9
20260507040527 5 112 0.0 0.0 0.00 0.00 0.00 92 1015.9
20260507040031 5 112 0.0 0.0 0.00 0.00 0.00 92 1015.9
20260507035528 5 112 0.0 0.0 0.00 0.00 0.00 92 1015.9
20260507035028 5 112 0.0 0.0 0.00 0.00 0.00 92 1015.9
20260507034539 5 112 0.0 0.0 0.00 0.00 0.00 92 1015.9
20260507034128 5 112 0.0 0.0 0.00 0.00 0.00 92 1015.9
20260507033639 5 112 0.0 0.0 0.00 0.00 0.00 92 1015.9
20260507033227 5 112 0.0 0.0 0.00 0.00 0.00 92 1015.9
20260507032742 5 112 0.0 0.0 0.00 0.00 0.00 92 1015.9
20260507032327 5 112 0.0 0.0 0.00 0.00 0.00 92 1015.9
20260507031527 5 112 0.0 0.0 0.00 0.00 0.00 92 1015.9
20260507031041 5 112 0.0 0.0 0.00 0.00 0.00 92 1015.9
20260507030626 5 112 0.0 0.0 0.00 0.00 0.00 92 1015.6
20260507030141 5 112 0.0 0.0 0.00 0.00 0.00 92 1015.6
20260507025739 5 112 0.0 0.0 0.00 0.00 0.00 91 1015.6
20260507025325 5 112 0.0 0.0 0.00 0.00 0.00 91 1015.6
20260507024526 5 112 0.0 0.0 0.00 0.00 0.00 91 1015.6
20260507024025 5 112 0.0 0.0 0.00 0.00 0.00 91 1015.6
20260507023527 6 112 0.0 0.0 0.00 0.00 0.00 91 1015.6
20260507023026 6 112 0.0 0.0 0.00 0.00 0.00 91 1015.6
20260507022526 6 112 0.0 0.0 0.00 0.00 0.00 91 1015.6
20260507022025 6 112 0.0 0.0 0.00 0.00 0.00 90 1015.6
20260507021526 6 112 0.0 0.0 0.00 0.00 0.00 90 1015.6
20260507021027 6 112 0.0 0.0 0.00 0.00 0.00 90 1015.6
20260507020524 6 112 0.0 0.0 0.00 0.00 0.00 90 1015.6
20260507020028 6 112 0.0 0.0 0.00 0.00 0.00 90 1015.6
20260507015524 6 112 0.0 0.0 0.00 0.00 0.00 90 1015.6
20260507015023 6 112 0.0 0.0 0.00 0.00 0.00 90 1015.6
20260507014537 6 112 0.0 0.0 0.00 0.00 0.00 90 1015.6
20260507014123 6 112 0.0 0.0 0.00 0.00 0.00 90 1015.6
20260507013639 6 112 0.0 0.0 0.00 0.00 0.00 89 1015.6
20260507013223 6 112 0.0 0.0 0.00 0.00 0.00 89 1015.6
20260507012741 6 112 0.0 0.0 0.00 0.00 0.00 89 1015.6
20260507012322 6 112 0.0 0.0 0.00 0.00 0.00 89 1015.2
20260507011523 7 112 0.0 0.0 0.00 0.00 0.00 89 1015.6
20260507011023 7 112 0.0 0.0 0.00 0.00 0.00 89 1015.2
20260507010522 7 112 0.0 0.0 0.00 0.00 0.00 88 1015.6
20260507010029 7 112 0.0 0.0 0.00 0.00 0.00 88 1015.2
20260507005539 7 112 0.0 0.0 0.00 0.00 0.00 88 1015.2
20260507005135 7 112 0.0 0.0 0.00 0.00 0.00 87 1015.6
20260507004722 7 112 0.0 0.0 0.00 0.00 0.00 87 1015.6
20260507004241 7 112 0.0 0.0 0.00 0.00 0.00 87 1015.2
20260507003823 7 112 0.0 0.0 0.00 0.00 0.00 86 1015.6
20260507003021 7 112 0.0 0.0 0.00 0.00 0.00 86 1015.6
20260507002541 7 112 0.0 0.0 0.00 0.00 0.00 86 1015.6
20260507002135 7 112 0.0 0.0 0.00 0.00 0.00 86 1015.6
20260507001720 7 112 0.0 0.0 0.00 0.00 0.00 85 1015.6
20260507001319 7 112 0.0 0.0 0.00 0.00 0.00 85 1015.6
20260507000542 7 112 0.0 0.0 0.00 0.00 0.00 85 1015.6
20260507000138 7 112 0.0 0.0 0.00 0.00 0.00 84 1015.6
20260506235736 8 112 0.0 0.0 0.00 0.00 0.00 83 1015.6
20260506235321 8 112 0.0 0.0 0.00 0.00 0.00 83 1015.6
20260506234539 8 112 0.0 0.0 0.00 0.00 0.00 83 1015.2
20260506234038 8 112 0.0 0.0 0.00 0.00 0.00 82 1015.2
20260506233618 8 112 0.0 0.0 0.00 0.00 0.00 82 1015.2
20260506233145 8 112 0.0 0.0 0.00 0.00 0.00 81 1015.2
20260506232719 8 112 0.0 0.0 0.00 0.00 0.00 81 1015.2
20260506232238 9 112 0.0 0.0 0.00 0.00 0.00 80 1015.2
20260506231818 9 112 0.0 0.0 0.00 0.00 0.00 79 1015.2
20260506231018 9 112 0.0 0.0 0.00 0.00 0.00 79 1015.2
20260506230519 9 112 0.0 0.0 0.00 0.00 0.00 78 1015.2
20260506230019 10 112 0.0 0.0 0.00 0.00 0.00 78 1015.2
20260506225535 10 112 0.0 0.0 0.00 0.00 0.00 78 1015.2
20260506225119 10 112 0.0 0.0 0.00 0.00 0.00 77 1015.2
20260506224641 10 112 0.0 0.0 0.00 0.00 0.00 77 1015.2
20260506224239 10 112 0.0 0.0 0.00 0.00 0.00 76 1015.2
20260506223817 10 112 0.0 0.0 0.00 0.00 0.00 76 1015.2
20260506223039 10 112 0.0 0.0 0.00 0.00 0.00 76 1015.2
20260506222617 10 113 0.0 0.0 0.00 0.00 0.00 76 1015.2
20260506222141 10 113 0.0 0.0 0.00 0.00 0.00 76 1015.2
20260506221739 10 329 0.0 0.0 0.00 0.00 0.00 75 1015.2
20260506221315 10 50 0.0 0.0 0.00 0.00 0.00 75 1014.9
20260506220536 11 37 0.0 0.0 0.00 0.00 0.00 75 1014.9
20260506220043 11 24 0.0 0.0 0.00 0.00 0.00 75 1014.9
20260506215637 11 265 0.0 0.0 0.00 0.00 0.00 75 1014.9
20260506215216 11 92 0.0 0.0 0.00 0.00 0.00 74 1014.9
20260506214738 11 296 0.0 0.0 0.00 0.00 0.00 74 1014.9
20260506214315 11 307 0.0 0.0 0.00 0.00 0.00 74 1015.2
20260506213538 11 49 0.0 0.0 0.00 0.00 0.00 74 1014.9
20260506213044 11 74 0.0 0.0 0.00 0.00 0.00 73 1014.9
20260506212615 11 90 0.0 0.0 0.00 0.00 0.00 73 1014.9
20260506212139 11 325 0.0 0.0 0.00 0.00 0.00 73 1014.9
20260506211717 11 41 0.0 0.0 0.00 0.00 0.00 73 1014.9
20260506211242 11 40 0.0 0.0 0.00 0.00 0.00 72 1014.9
20260506210816 11 24 0.0 0.0 0.00 0.00 0.00 71 1014.9
20260506210040 11 36 0.0 0.0 0.00 0.00 0.00 71 1014.9
20260506205537 11 24 0.0 0.0 0.00 0.00 0.00 71 1014.9
20260506205116 11 54 0.0 0.0 0.00 0.00 0.00 70 1014.9
20260506204644 11 118 0.0 0.0 0.00 0.00 0.00 70 1014.9
20260506204236 11 44 0.0 0.0 0.00 0.00 0.00 69 1014.6
20260506203812 11 44 0.0 0.0 0.00 0.00 0.00 68 1014.6
20260506203042 11 44 0.0 0.0 0.00 0.00 0.00 68 1014.6
20260506202535 11 44 0.0 0.0 0.00 0.00 0.00 67 1014.6
20260506202042 11 109 0.0 0.0 0.00 0.00 0.00 67 1014.6
20260506201614 11 115 0.0 0.0 0.00 0.00 0.00 68 1014.6
20260506201139 11 5 0.0 0.0 0.00 0.00 0.00 67 1014.6
20260506200738 11 41 0.0 0.0 0.00 0.00 0.00 66 1014.6
20260506200314 11 73 0.0 0.0 0.00 0.00 0.00 66 1014.2
20260506195538 12 313 0.0 0.0 0.00 0.00 0.00 66 1014.2
20260506195040 12 46 0.0 0.0 0.00 0.00 0.00 66 1014.2
20260506194617 12 46 0.0 1.6 0.00 0.00 0.00 65 1014.2
20260506194214 12 38 0.0 0.0 0.00 0.00 0.00 65 1014.2
20260506193812 12 355 0.0 0.0 0.00 0.00 0.00 65 1013.9
20260506193036 12 360 0.0 0.0 0.00 0.00 0.00 63 1013.9
20260506192540 12 267 0.0 0.0 0.00 0.00 0.00 63 1013.9
20260506192040 12 267 0.0 0.0 0.00 0.00 0.00 64 1013.9
20260506191535 12 38 0.0 0.0 0.00 0.00 0.00 63 1013.9
20260506191116 12 39 0.0 0.0 0.00 0.00 0.00 63 1013.9
20260506190647 12 19 0.0 0.0 0.00 0.00 0.00 63 1013.9
20260506190216 12 19 0.0 0.0 0.00 0.00 0.00 63 1013.9
20260506185743 12 244 0.0 0.0 0.00 0.00 0.00 64 1013.9
20260506185015 12 34 0.0 0.0 0.00 0.00 0.00 63 1013.9
20260506184537 12 34 0.0 0.0 0.00 0.00 0.00 64 1013.5
20260506184038 12 74 0.0 0.0 0.00 0.00 0.00 62 1013.5
20260506183537 12 70 0.0 0.0 0.00 0.00 0.00 64 1013.5
20260506183038 12 281 0.0 0.0 0.00 0.00 0.00 63 1013.5
20260506182613 12 281 0.0 0.0 0.00 0.00 0.00 63 1013.5
20260506182212 12 302 0.0 0.0 0.00 0.00 0.00 62 1013.5
20260506181742 13 70 0.0 0.0 0.00 0.00 0.00 63 1013.5
20260506181312 13 339 0.0 0.0 0.00 0.00 0.00 63 1013.5
20260506180515 13 337 0.0 0.0 0.00 0.00 0.00 61 1013.2
20260506180110 13 140 0.0 0.0 0.00 0.00 0.00 62 1013.2
20260506175642 13 75 0.0 0.0 0.00 0.00 0.00 61 1013.2
20260506175239 13 58 0.0 0.0 0.00 0.00 0.00 61 1013.2
20260506174815 13 42 0.0 0.0 0.00 0.00 0.00 61 1013.2
20260506174038 13 57 0.0 0.0 0.00 0.00 0.00 61 1013.2
20260506173538 13 345 0.0 0.0 0.00 0.00 0.00 61 1013.2
20260506173039 13 83 0.0 0.0 0.00 0.00 0.00 61 1013.2
20260506172541 13 26 0.0 0.0 0.00 0.00 0.00 61 1012.9
20260506172124 13 324 0.0 0.0 0.00 0.00 0.00 62 1012.9
20260506171648 13 44 0.0 0.0 0.00 0.00 0.00 61 1012.9
20260506171225 13 71 0.0 0.0 0.00 0.00 0.00 61 1012.9
20260506170823 13 146 0.0 0.0 0.00 0.00 0.00 61 1012.9
20260506170023 13 128 0.0 0.0 0.00 0.00 0.00 61 1012.9
20260506165521 13 134 0.0 0.0 0.00 0.00 0.00 60 1012.9
20260506165042 13 355 0.0 0.0 0.00 0.00 0.00 60 1012.9
20260506164623 13 55 0.0 0.0 0.00 0.00 0.00 60 1012.9
20260506164223 13 128 0.0 0.0 0.00 0.00 0.00 61 1012.9
20260506163741 13 313 0.0 0.0 0.00 0.00 0.00 61 1012.9
20260506163321 13 66 0.0 0.0 0.00 0.00 0.00 61 1012.9
20260506162521 13 153 0.0 0.0 0.00 0.00 0.00 61 1012.9
20260506162041 13 65 0.0 0.0 0.00 0.00 0.00 61 1012.9
20260506161538 13 291 0.0 0.0 0.00 0.00 0.00 61 1012.9
20260506161137 13 329 0.0 0.0 0.00 0.00 0.00 62 1013.2
20260506160719 13 115 0.0 0.0 0.00 0.00 0.00 63 1013.2
20260506160245 13 325 0.0 0.0 0.00 0.00 0.00 62 1013.2
20260506155820 13 327 0.0 0.0 0.00 0.00 0.00 62 1013.2
20260506155034 13 145 0.0 0.0 0.00 0.00 0.00 61 1013.2
20260506154537 13 192 0.0 0.0 0.00 0.00 0.00 61 1013.2
20260506154121 13 235 0.0 0.0 0.00 0.00 0.00 61 1013.2
20260506153641 13 97 0.0 0.0 0.00 0.00 0.00 60 1013.2
20260506153219 14 38 0.0 0.0 0.00 0.00 0.00 60 1013.2
20260506152739 14 90 0.0 0.0 0.00 0.00 0.00 60 1013.2
20260506152318 14 115 0.0 0.0 0.00 0.00 0.00 60 1013.2
20260506151517 14 360 0.0 0.0 0.00 0.00 0.00 60 1012.9
20260506151042 13 322 0.0 0.0 0.00 0.00 0.00 60 1012.9
20260506150618 13 325 0.0 0.0 0.00 0.00 0.00 60 1012.9
20260506150140 13 273 0.0 0.0 0.00 0.00 0.00 59 1013.2
20260506145737 13 300 0.0 0.0 0.00 0.00 0.00 60 1013.2
20260506145319 13 267 0.0 0.0 0.00 0.00 0.00 60 1013.2
20260506144536 13 355 0.0 0.0 0.00 0.00 0.00 59 1013.2
20260506144116 13 308 0.0 0.0 0.00 0.00 0.00 59 1013.2
20260506143642 13 325 0.0 0.0 0.00 0.00 0.00 60 1013.2
20260506143239 13 334 0.0 0.0 0.00 0.00 0.00 60 1013.2
20260506142817 13 258 0.0 1.6 0.00 0.00 0.00 60 1013.2
20260506142016 13 123 0.0 0.0 0.00 0.00 0.00 61 1013.2
20260506141517 13 321 0.0 0.0 0.00 0.00 0.00 60 1013.2
20260506141040 14 340 0.0 0.0 0.00 0.00 0.00 59 1013.2
20260506140538 14 182 0.0 0.0 0.00 0.00 0.00 59 1013.2
20260506140115 14 289 0.0 0.0 0.00 0.00 0.00 58 1013.2
20260506135643 15 155 0.0 0.0 0.00 0.00 0.00 56 1013.2
20260506135216 15 16 0.0 0.0 0.00 0.00 0.00 54 1013.2
20260506134741 16 277 0.0 0.0 0.00 0.00 0.00 54 1013.2
20260506134315 16 135 0.0 0.0 0.00 0.00 0.00 53 1012.9
20260506133514 16 41 0.0 0.0 0.00 0.00 0.00 53 1012.9
20260506133043 16 327 0.0 0.0 0.00 0.00 0.00 52 1012.9
20260506132538 16 109 0.0 1.6 0.00 0.00 0.00 54 1012.9
20260506132038 16 99 0.0 0.0 0.00 0.00 0.00 52 1012.9
20260506131543 16 74 0.0 0.0 0.00 0.00 0.00 53 1012.9
20260506131137 16 26 0.0 0.0 0.00 0.00 0.00 52 1013.2
20260506130714 16 58 0.0 1.6 0.00 0.00 0.00 51 1013.2
20260506130237 16 158 0.0 0.0 0.00 0.00 0.00 50 1013.2
20260506125812 16 157 0.0 0.0 0.00 0.00 0.00 50 1012.9
20260506125037 16 26 0.0 0.0 0.00 0.00 0.00 53 1012.9
20260506124536 16 360 0.0 0.0 0.00 0.00 0.00 53 1012.9
20260506124040 16 86 0.0 0.0 0.00 0.00 0.00 53 1012.9
20260506123614 15 313 0.0 0.0 0.00 0.00 0.00 55 1012.9
20260506123143 15 273 0.0 0.0 0.00 0.00 0.00 54 1012.9
20260506122740 15 305 0.0 1.6 0.00 0.00 0.00 54 1012.9
20260506122312 15 171 0.0 1.6 0.00 0.00 0.00 55 1013.2
20260506121536 15 76 0.0 0.0 0.00 0.00 0.00 55 1013.2
20260506121042 15 36 0.0 0.0 0.00 0.00 0.00 53 1013.2
20260506120641 15 318 0.0 1.6 0.00 0.00 0.00 55 1013.2
20260506120215 15 219 0.0 0.0 0.00 0.00 0.00 56 1013.2
20260506115812 15 127 0.0 0.0 0.00 0.00 0.00 55 1013.2
20260506115042 15 287 0.0 0.0 0.00 0.00 0.00 54 1013.2
20260506114613 15 5 0.0 0.0 0.00 0.00 0.00 57 1013.2
20260506114142 14 50 0.0 0.0 0.00 0.00 0.00 55 1013.2
20260506113713 14 24 0.0 0.0 0.00 0.00 0.00 56 1013.2
20260506113242 14 101 0.0 0.0 0.00 0.00 0.00 56 1013.2
20260506112813 14 279 0.0 0.0 0.00 0.00 0.00 56 1013.2
20260506112040 14 78 0.0 0.0 0.00 0.00 0.00 57 1013.2
20260506111614 14 350 0.0 0.0 0.00 0.00 0.00 56 1013.2
20260506111139 14 308 0.0 0.0 0.00 0.00 0.00 57 1013.2
20260506110712 14 245 0.0 0.0 0.00 0.00 0.00 54 1013.2
20260506110311 14 355 0.0 0.0 0.00 0.00 0.00 55 1013.2
20260506105541 14 5 0.0 0.0 0.00 0.00 0.00 55 1013.2
20260506105039 14 329 0.0 0.0 0.00 0.00 0.00 57 1013.2
20260506104543 14 334 0.0 0.0 0.00 0.00 0.00 56 1013.2
20260506104137 14 51 0.0 0.0 0.00 0.00 0.00 56 1013.2
20260506103711 14 24 0.0 4.8 0.00 0.00 0.00 56 1013.2
20260506103244 14 218 0.0 0.0 0.00 0.00 0.00 58 1013.2
20260506102813 14 23 0.0 0.0 0.00 0.00 0.00 56 1013.2
20260506102039 13 30 0.0 0.0 0.00 0.00 0.00 58 1013.2
20260506101539 13 360 0.0 0.0 0.00 0.00 0.00 59 1013.2
20260506101039 13 279 0.0 0.0 0.00 0.00 0.00 62 1013.2
20260506100539 13 97 0.0 0.0 0.00 0.00 0.00 63 1013.2
20260506100039 12 304 0.0 0.0 0.00 0.00 0.00 66 1013.2
20260506095639 12 306 0.0 0.0 0.00 0.00 0.00 66 1013.2
20260506095239 12 273 0.0 0.0 0.00 0.00 0.00 66 1013.2
20260506094829 12 166 0.0 0.0 0.00 0.00 0.00 66 1013.2
20260506094029 12 174 0.0 0.0 0.00 0.00 0.00 67 1013.2